Date,TemperatureHighF,TemperatureAvgF,TemperatureLowF,DewpointHighF,DewpointAvgF,DewpointLowF,HumidityHigh,HumidityAvg,HumidityLow,PressureMaxIn,PressureMinIn,WindSpeedMaxMPH,WindSpeedAvgMPH,GustSpeedMaxMPH,PrecipitationSumIn
2013-1-1,24,12,3,-100,-100,-100,0,0,100,0.00,40.00,0,-999,0,0.00
2013-1-2,24,18,14,-100,-100,-100,0,0,100,0.00,40.00,0,-999,0,0.00
2013-1-3,33,12,2,-100,-100,-100,0,0,100,0.00,40.00,0,-999,0,0.00
2013-1-4,42,24,10,-100,-100,-100,0,0,100,0.00,40.00,0,-999,0,0.00
2013-1-5,38,23,13,-100,-100,-100,0,0,100,0.00,40.00,0,-999,0,0.00
2013-1-6,42,22,4,-100,-100,-100,0,0,100,0.00,40.00,0,-999,0,0.00
2013-1-7,49,29,18,-100,-100,-100,0,0,100,0.00,40.00,0,-999,0,0.00
2013-1-8,47,34,24,-100,-100,-100,0,0,100,0.00,40.00,0,-999,0,0.00
2013-1-9,50,28,19,-100,-100,-100,0,0,100,0.00,40.00,0,-999,0,0.00
2013-1-10,38,23,14,-100,-100,-100,0,0,100,0.00,40.00,0,-999,0,0.00
2013-1-11,32,17,2,-100,-100,-100,0,0,100,0.00,40.00,0,-999,0,0.00
2013-1-12,15,3,-5,-100,-100,-100,0,0,100,0.00,40.00,0,-999,0,0.00
2013-1-13,9,-1,-10,-100,-100,-100,0,0,100,0.00,40.00,0,-999,0,0.00
2013-1-14,14,0,-8,-100,-100,-100,0,0,100,0.00,40.00,0,-999,0,0.00
2013-1-15,29,12,-9,-100,-100,-100,0,0,100,0.00,40.00,0,-999,0,0.00
2013-1-16,47,32,25,-100,-100,-100,0,0,100,0.00,40.00,0,-999,0,0.00
2013-1-17,47,24,13,-100,-100,-100,0,0,100,0.00,40.00,0,-999,0,0.00
2013-1-18,53,36,25,-100,-100,-100,0,0,100,0.00,40.00,0,-999,0,0.00
2013-1-19,52,35,24,-100,-100,-100,0,0,100,0.00,40.00,0,-999,0,0.00
2013-1-20,41,25,9,-100,-100,-100,0,0,100,0.00,40.00,0,-999,0,0.00
2013-1-21,50,27,9,-100,-100,-100,0,0,100,0.00,40.00,0,-999,0,0.00
2013-1-22,51,32,20,-100,-100,-100,0,0,100,0.00,40.00,0,-999,0,0.00
2013-1-23,58,41,24,-100,-100,-100,0,0,100,0.00,40.00,0,-999,0,0.00
2013-1-24,58,41,25,-100,-100,-100,0,0,100,0.00,40.00,0,-999,0,0.00
2013-1-25,54,37,26,-100,-100,-100,0,0,100,0.00,40.00,0,-999,0,0.00
2013-1-26,50,35,22,-100,-100,-100,0,0,100,0.00,40.00,0,-999,0,0.00
2013-1-27,51,38,29,-100,-100,-100,0,0,100,0.00,40.00,0,-999,0,0.00
2013-1-28,43,28,22,-100,-100,-100,0,0,100,0.00,40.00,0,-999,0,0.00
2013-1-29,25,20,14,-100,-100,-100,0,0,100,0.00,40.00,0,-999,0,0.00
2013-1-30,32,24,8,-100,-100,-100,0,0,100,0.00,40.00,0,-999,0,0.00
2013-1-31,34,26,17,-100,-100,-100,0,0,100,0.00,40.00,0,-999,0,0.00
2013-2-1,44,28,15,-100,-100,-100,0,0,100,0.00,40.00,0,-999,0,0.00
2013-2-2,53,32,14,-100,-100,-100,0,0,100,0.00,40.00,0,-999,0,0.00
2013-2-3,51,36,16,-100,-100,-100,0,0,100,0.00,40.00,0,-999,0,0.00
2013-2-4,48,33,18,-100,-100,-100,0,0,100,0.00,40.00,0,-999,0,0.00
2013-2-5,50,34,22,-100,-100,-100,0,0,100,0.00,40.00,0,-999,0,0.00
2013-2-6,47,36,27,-100,-100,-100,0,0,100,0.00,40.00,0,-999,0,0.00
2013-2-7,42,27,14,-100,-100,-100,0,0,100,0.00,40.00,0,-999,0,0.00
2013-2-8,46,23,10,-100,-100,-100,0,0,100,0.00,40.00,0,-999,0,0.00
2013-2-9,33,24,20,-100,-100,-100,0,0,100,0.00,40.00,0,-999,0,0.00
2013-2-10,28,22,12,-100,-100,-100,0,0,100,0.00,40.00,0,-999,0,0.00
2013-2-11,26,15,7,-100,-100,-100,0,0,100,0.00,40.00,0,-999,0,0.00
2013-2-12,38,22,6,-100,-100,-100,0,0,100,0.00,40.00,0,-999,0,0.00
2013-2-13,43,27,10,-100,-100,-100,0,0,100,0.00,40.00,0,-999,0,0.00
2013-2-14,33,24,20,-100,-100,-100,0,0,100,0.00,40.00,0,-999,0,0.00
2013-2-15,32,22,16,-100,-100,-100,0,0,100,0.00,40.00,0,-999,0,0.00
2013-2-16,52,34,15,-100,-100,-100,0,0,100,0.00,40.00,0,-999,0,0.00
2013-2-17,55,35,19,-100,-100,-100,0,0,100,0.00,40.00,0,-999,0,0.00
2013-2-18,33,23,16,-100,-100,-100,0,0,100,0.00,40.00,0,-999,0,0.00
2013-2-19,37,19,6,-100,-100,-100,0,0,100,0.00,40.00,0,-999,0,0.00
2013-2-20,29,16,11,-100,-100,-100,0,0,100,0.00,40.00,0,-999,0,0.00
2013-2-21,21,15,10,-100,-100,-100,0,0,100,0.00,40.00,0,-999,0,0.00
2013-2-22,31,19,6,-100,-100,-100,0,0,100,0.00,40.00,0,-999,0,0.00
2013-2-23,36,19,7,-100,-100,-100,0,0,100,0.00,40.00,0,-999,0,0.00
2013-2-24,25,21,9,-100,-100,-100,0,0,100,0.00,40.00,0,-999,0,0.00
2013-2-25,28,14,2,-100,-100,-100,0,0,100,0.00,40.00,0,-999,0,0.00
2013-2-26,25,22,12,-100,-100,-100,0,0,100,0.00,40.00,0,-999,0,0.00
2013-2-27,35,23,14,-100,-100,-100,0,0,100,0.00,40.00,0,-999,0,0.00
2013-2-28,37,25,13,-100,-100,-100,0,0,100,0.00,40.00,0,-999,0,0.00
2013-3-1,43,30,22,-100,-100,-100,0,0,100,0.00,40.00,0,-999,0,0.00
2013-3-2,58,42,29,-100,-100,-100,0,0,100,0.00,40.00,0,-999,0,0.00
2013-3-3,57,41,29,-100,-100,-100,0,0,100,0.00,40.00,0,-999,0,0.00
2013-3-4,39,25,14,-100,-100,-100,0,0,100,0.00,40.00,0,-999,0,0.00
2013-3-5,33,16,5,-100,-100,-100,0,0,100,0.00,40.00,0,-999,0,0.00
2013-3-6,50,30,10,-100,-100,-100,0,0,100,0.00,40.00,0,-999,0,0.00
2013-3-7,58,40,25,-100,-100,-100,0,0,100,0.00,40.00,0,-999,0,0.00
2013-3-8,42,30,23,-100,-100,-100,0,0,100,0.00,40.00,0,-999,0,0.00
2013-3-9,32,28,22,-100,-100,-100,0,0,100,0.00,40.00,0,-999,0,0.00
2013-3-10,44,31,17,-100,-100,-100,0,0,100,0.00,40.00,0,-999,0,0.00
2013-3-11,47,34,26,-100,-100,-100,0,0,100,0.00,40.00,0,-999,0,0.00
2013-3-12,30,24,19,-100,-100,-100,0,0,100,0.00,40.00,0,-999,0,0.00
2013-3-13,57,41,21,-100,-100,-100,0,0,100,0.00,40.00,0,-999,0,0.00
2013-3-14,65,49,39,-100,-100,-100,0,0,100,0.00,40.00,0,-999,0,0.00
2013-3-15,69,55,43,-100,-100,-100,0,0,100,0.00,40.00,0,-999,0,0.00
2013-3-16,50,41,32,-100,-100,-100,0,0,100,0.00,40.00,0,-999,0,0.00
2013-3-17,51,33,21,-100,-100,-100,0,0,100,0.00,40.00,0,-999,0,0.00
2013-3-18,41,30,18,-100,-100,-100,0,0,100,0.00,40.00,0,-999,0,0.00
2013-3-19,47,31,18,-100,-100,-100,0,0,100,0.00,40.00,0,-999,0,0.00
2013-3-20,45,29,8,-100,-100,-100,0,0,100,0.00,40.00,0,-999,0,0.00
2013-3-21,44,36,28,-100,-100,-100,0,0,100,0.00,40.00,0,-999,0,0.00
2013-3-22,32,26,21,-100,-100,-100,0,0,100,0.00,40.00,0,-999,0,0.00
2013-3-23,21,15,7,-100,-100,-100,0,0,100,0.00,40.00,0,-999,0,0.00
2013-3-24,25,15,3,-100,-100,-100,0,0,100,0.00,40.00,0,-999,0,0.00
2013-3-25,29,16,8,-100,-100,-100,0,0,100,0.00,40.00,0,-999,0,0.00
2013-3-26,43,24,8,-100,-100,-100,0,0,100,0.00,40.00,0,-999,0,0.00
2013-3-27,51,36,22,-100,-100,-100,0,0,100,0.00,40.00,0,-999,0,0.00
2013-3-28,62,46,25,-100,-100,-100,0,0,100,0.00,40.00,0,-999,0,0.00
2013-3-29,60,46,28,-100,-100,-100,0,0,100,0.00,40.00,0,-999,0,0.00
2013-3-30,53,38,27,-100,-100,-100,0,0,100,0.00,40.00,0,-999,0,0.00
2013-3-31,65,40,18,-100,-100,-100,0,0,100,0.00,40.00,0,-999,0,0.00
2013-4-1,46,31,23,-100,-100,-100,0,0,100,0.00,40.00,0,-999,0,0.00
2013-4-2,42,33,27,-100,-100,-100,0,0,100,0.00,40.00,0,-999,0,0.00
2013-4-3,55,40,29,-100,-100,-100,0,0,100,0.00,40.00,0,-999,0,0.00
2013-4-4,65,47,30,-100,-100,-100,0,0,100,0.00,40.00,0,-999,0,0.00
2013-4-5,69,51,40,-100,-100,-100,0,0,100,0.00,40.00,0,-999,0,0.00
2013-4-6,59,46,33,-100,-100,-100,0,0,100,0.00,40.00,0,-999,0,0.00
2013-4-7,59,46,34,-100,-100,-100,0,0,100,0.00,40.00,0,-999,0,0.00
2013-4-8,59,36,19,-100,-100,-100,0,0,100,0.00,40.00,0,-999,0,0.00
2013-4-9,14,10,7,-100,-100,-100,0,0,100,0.00,40.00,0,-999,0,0.00
2013-4-10,24,14,3,-100,-100,-100,0,0,100,0.00,40.00,0,-999,0,0.00
2013-4-11,46,33,12,-100,-100,-100,0,0,100,0.00,40.00,0,-999,0,0.00
2013-4-12,45,36,26,-100,-100,-100,0,0,100,0.00,40.00,0,-999,0,0.00
2013-4-13,54,40,24,-100,-100,-100,0,0,100,0.00,40.00,0,-999,0,0.00
2013-4-14,39,33,26,-100,-100,-100,0,0,100,0.00,40.00,0,-999,0,0.00
2013-4-15,28,22,19,-100,-100,-100,0,0,100,0.00,40.00,0,-999,0,0.00
2013-4-16,27,22,20,-100,-100,-100,0,0,100,0.00,40.00,0,-999,0,0.00
2013-4-17,25,21,14,-100,-100,-100,0,0,100,0.00,40.00,0,-999,0,0.00
2013-4-18,26,19,5,-100,-100,-100,0,0,100,0.00,40.00,0,-999,0,0.00
2013-4-19,40,28,18,-100,-100,-100,0,0,100,0.00,40.00,0,-999,0,0.00
2013-4-20,47,36,26,-100,-100,-100,0,0,100,0.00,40.00,0,-999,0,0.00
2013-4-21,58,46,33,-100,-100,-100,0,0,100,0.00,40.00,0,-999,0,0.00
2013-4-22,37,26,19,-100,-100,-100,0,0,100,0.00,40.00,0,-999,0,0.00
2013-4-23,32,22,14,-100,-100,-100,0,0,100,0.00,40.00,0,-999,0,0.00
2013-4-24,48,34,19,-100,-100,-100,0,0,100,0.00,40.00,0,-999,0,0.00
2013-4-25,62,37,21,-100,-100,-100,0,0,100,0.00,40.00,0,-999,0,0.00
2013-4-26,65,47,29,-100,-100,-100,0,0,100,0.00,40.00,0,-999,0,0.00
2013-4-27,69,51,30,-100,-100,-100,0,0,100,0.00,40.00,0,-999,0,0.00
2013-4-28,73,56,40,-100,-100,-100,0,0,100,0.00,40.00,0,-999,0,0.00
2013-4-29,73,56,42,-100,-100,-100,0,0,100,0.00,40.00,0,-999,0,0.00
2013-4-30,52,41,29,-100,-100,-100,0,0,100,0.00,40.00,0,-999,0,0.00
2013-5-1,29,23,14,-100,-100,-100,0,0,100,0.00,40.00,0,-999,0,0.00
2013-5-2,42,24,8,-100,-100,-100,0,0,100,0.00,40.00,0,-999,0,0.00
2013-5-3,50,37,23,-100,-100,-100,0,0,100,0.00,40.00,0,-999,0,0.00
2013-5-4,52,40,34,-100,-100,-100,0,0,100,0.00,40.00,0,-999,0,0.00
2013-5-5,54,44,29,-100,-100,-100,0,0,100,0.00,40.00,0,-999,0,0.00
2013-5-6,61,44,32,-100,-100,-100,0,0,100,0.00,40.00,0,-999,0,0.00
2013-5-7,57,46,38,-100,-100,-100,0,0,100,0.00,40.00,0,-999,0,0.00
2013-5-8,59,47,42,-100,-100,-100,0,0,100,0.00,40.00,0,-999,0,0.00
2013-5-9,54,46,40,-100,-100,-100,0,0,100,0.00,40.00,0,-999,0,0.00
2013-5-10,63,50,37,-100,-100,-100,0,0,100,0.00,40.00,0,-999,0,0.00
2013-5-11,58,47,40,-100,-100,-100,0,0,100,0.00,40.00,0,-999,0,0.00
2013-5-12,73,59,42,-100,-100,-100,0,0,100,0.00,40.00,0,-999,0,0.00
2013-5-13,80,63,47,-100,-100,-100,0,0,100,0.00,40.00,0,-999,0,0.00
2013-5-14,83,63,50,-100,-100,-100,0,0,100,0.00,40.00,0,-999,0,0.00
2013-5-15,76,60,51,-100,-100,-100,0,0,100,0.00,40.00,0,-999,0,0.00
2013-5-16,73,62,49,-100,-100,-100,0,0,100,0.00,40.00,0,-999,0,0.00
2013-5-17,81,64,46,-100,-100,-100,0,0,100,0.00,40.00,0,-999,0,0.00
2013-5-18,75,58,50,-100,-100,-100,0,0,100,0.00,40.00,0,-999,0,0.00
2013-5-19,62,54,47,-100,-100,-100,0,0,100,0.00,40.00,0,-999,0,0.00
2013-5-20,56,47,43,-100,-100,-100,0,0,100,0.00,40.00,0,-999,0,0.00
2013-5-21,64,51,37,-100,-100,-100,0,0,100,0.00,40.00,0,-999,0,0.00
2013-5-22,69,51,33,-100,-100,-100,0,0,100,0.00,40.00,0,-999,0,0.00
2013-5-23,60,49,41,-100,-100,-100,0,0,100,0.00,40.00,0,-999,0,0.00
2013-5-24,80,58,46,-100,-100,-100,0,0,100,0.00,40.00,0,-999,0,0.00
2013-5-25,82,59,44,-100,-100,-100,0,0,100,0.00,40.00,0,-999,0,0.00
2013-5-26,77,64,49,-100,-100,-100,0,0,100,0.00,40.00,0,-999,0,0.00
2013-5-27,75,60,47,-100,-100,-100,0,0,100,0.00,40.00,0,-999,0,0.00
2013-5-28,73,60,47,-100,-100,-100,0,0,100,0.00,40.00,0,-999,0,0.00
2013-5-29,62,51,43,-100,-100,-100,0,0,100,0.00,40.00,0,-999,0,0.00
2013-5-30,63,55,42,-100,-100,-100,0,0,100,0.00,40.00,0,-999,0,0.00
2013-5-31,62,53,44,-100,-100,-100,0,0,100,0.00,40.00,0,-999,0,0.00
2013-6-1,65,52,45,-100,-100,-100,0,0,100,0.00,40.00,0,-999,0,0.00
2013-6-2,76,56,36,-100,-100,-100,0,0,100,0.00,40.00,0,-999,0,0.00
2013-6-3,83,59,40,-100,-100,-100,0,0,100,0.00,40.00,0,-999,0,0.00
2013-6-4,70,54,44,-100,-100,-100,0,0,100,0.00,40.00,0,-999,0,0.00
2013-6-5,60,49,41,-100,-100,-100,0,0,100,0.00,40.00,0,-999,0,0.00
2013-6-6,76,54,36,-100,-100,-100,0,0,100,0.00,40.00,0,-999,0,0.00
2013-6-7,77,58,46,-100,-100,-100,0,0,100,0.00,40.00,0,-999,0,0.00
2013-6-8,73,60,51,-100,-100,-100,0,0,100,0.00,40.00,0,-999,0,0.00
2013-6-9,83,65,41,-100,-100,-100,0,0,100,0.00,40.00,0,-999,0,0.00
2013-6-10,94,72,51,-100,-100,-100,0,0,100,0.00,40.00,0,-999,0,0.00
2013-6-11,93,72,51,-100,-100,-100,0,0,100,0.00,40.00,0,-999,0,0.00
2013-6-12,85,70,53,-100,-100,-100,0,0,100,0.00,40.00,0,-999,0,0.00
2013-6-13,81,66,51,-100,-100,-100,0,0,100,0.00,40.00,0,-999,0,0.00
2013-6-14,88,72,51,-100,-100,-100,0,0,100,0.00,40.00,0,-999,0,0.00
2013-6-15,76,62,49,-100,-100,-100,0,0,100,0.00,40.00,0,-999,0,0.00
2013-6-16,77,61,51,-100,-100,-100,0,0,100,0.00,40.00,0,-999,0,0.00
2013-6-17,80,58,45,-100,-100,-100,0,0,100,0.00,40.00,0,-999,0,0.00
2013-6-18,79,61,47,-100,-100,-100,0,0,100,0.00,40.00,0,-999,0,0.00
2013-6-19,90,74,49,-100,-100,-100,0,0,100,0.00,40.00,0,-999,0,0.00
2013-6-20,84,70,52,-100,-100,-100,0,0,100,0.00,40.00,0,-999,0,0.00
2013-6-22,83,68,58,-100,-100,-100,0,0,100,0.00,40.00,0,-999,0,0.00
2013-6-23,78,66,46,-100,-100,-100,0,0,100,0.00,40.00,0,-999,0,0.00
2013-6-24,86,69,52,-100,-100,-100,0,0,100,0.00,40.00,0,-999,0,0.00
2013-6-25,85,73,55,-100,-100,-100,0,0,100,0.00,40.00,0,-999,0,0.00
2013-6-26,91,73,54,-100,-100,-100,0,0,100,0.00,40.00,0,-999,0,0.00
2013-6-27,94,77,62,-100,-100,-100,0,0,100,0.00,40.00,0,-999,0,0.00
2013-6-28,91,77,59,-100,-100,-100,0,0,100,0.00,40.00,0,-999,0,0.00
2013-6-29,84,68,54,-100,-100,-100,0,0,100,0.00,40.00,0,-999,0,0.00
2013-6-30,78,66,60,-100,-100,-100,0,0,100,0.00,40.00,0,-999,0,0.00
2013-7-1,73,63,51,-100,-100,-100,0,0,100,0.00,40.00,0,-999,0,0.00
2013-7-2,79,65,47,-100,-100,-100,0,0,100,0.00,40.00,0,-999,0,0.00
2013-7-3,85,68,47,-100,-100,-100,0,0,100,0.00,40.00,0,-999,0,0.00
2013-7-4,86,72,55,-100,-100,-100,0,0,100,0.00,40.00,0,-999,0,0.00
2013-7-5,83,69,60,-100,-100,-100,0,0,100,0.00,40.00,0,-999,0,0.00
2013-7-6,79,65,56,-100,-100,-100,0,0,100,0.00,40.00,0,-999,0,0.00
2013-7-7,87,69,58,-100,-100,-100,0,0,100,0.00,40.00,0,-999,0,0.00
2013-7-8,90,69,54,-100,-100,-100,0,0,100,0.00,40.00,0,-999,0,0.00
2013-7-9,90,79,55,-100,-100,-100,0,0,100,0.00,40.00,0,-999,0,0.00
2013-7-10,87,71,55,-100,-100,-100,0,0,100,0.00,40.00,0,-999,0,0.00
2013-7-11,94,72,54,-100,-100,-100,0,0,100,0.00,40.00,0,-999,0,0.00
2013-7-12,89,72,62,-100,-100,-100,0,0,100,0.00,40.00,0,-999,0,0.00
2013-7-13,87,69,60,-100,-100,-100,0,0,100,0.00,40.00,0,-999,0,0.00
2013-7-14,75,64,57,-100,-100,-100,0,0,100,0.00,40.00,0,-999,0,0.00
2013-7-15,73,65,61,-100,-100,-100,0,0,100,0.00,40.00,0,-999,0,0.00
2013-7-16,80,66,50,-100,-100,-100,0,0,100,0.00,40.00,0,-999,0,0.00
2013-7-17,86,70,54,-100,-100,-100,0,0,100,0.00,40.00,0,-999,0,0.00
2013-7-18,87,71,55,-100,-100,-100,0,0,100,0.00,40.00,0,-999,0,0.00
2013-7-19,76,65,59,-100,-100,-100,0,0,100,0.00,40.00,0,-999,0,0.00
2013-7-20,81,64,54,-100,-100,-100,0,0,100,0.00,40.00,0,-999,0,0.00
2013-7-21,81,70,51,-100,-100,-100,0,0,100,0.00,40.00,0,-999,0,0.00
2013-7-22,87,73,60,-100,-100,-100,0,0,100,0.00,40.00,0,-999,0,0.00
2013-7-23,83,69,54,-100,-100,-100,0,0,100,0.00,40.00,0,-999,0,0.00
2013-7-24,83,70,56,-100,-100,-100,0,0,100,0.00,40.00,0,-999,0,0.00
2013-7-25,73,64,56,-100,-100,-100,0,0,100,0.00,40.00,0,-999,0,0.00
2013-7-26,79,65,53,-100,-100,-100,0,0,100,0.00,40.00,0,-999,0,0.00
2013-7-27,64,56,49,-100,-100,-100,0,0,100,0.00,40.00,0,-999,0,0.00
2013-7-28,69,60,54,-100,-100,-100,0,0,100,0.00,40.00,0,-999,0,0.00
2013-7-29,75,62,55,-100,-100,-100,0,0,100,0.00,40.00,0,-999,0,0.00
2013-7-30,80,64,51,-100,-100,-100,0,0,100,0.00,40.00,0,-999,0,0.00
2013-7-31,83,66,51,-100,-100,-100,0,0,100,0.00,40.00,0,-999,0,0.00
2013-8-1,87,72,56,-100,-100,-100,0,0,100,0.00,40.00,0,-999,0,0.00
2013-8-2,88,68,51,-100,-100,-100,0,0,100,0.00,40.00,0,-999,0,0.00
2013-8-3,78,63,57,-100,-100,-100,0,0,100,0.00,40.00,0,-999,0,0.00
2013-8-4,80,67,51,-100,-100,-100,0,0,100,0.00,40.00,0,-999,0,0.00
2013-8-5,83,65,54,-100,-100,-100,0,0,100,0.00,40.00,0,-999,0,0.00
2013-8-6,87,66,50,-100,-100,-100,0,0,100,0.00,40.00,0,-999,0,0.00
2013-8-7,68,59,53,-100,-100,-100,0,0,100,0.00,40.00,0,-999,0,0.00
2013-8-8,70,59,54,-100,-100,-100,0,0,100,0.00,40.00,0,-999,0,0.00
2013-8-9,76,63,45,-100,-100,-100,0,0,100,0.00,40.00,0,-999,0,0.00
2013-8-10,83,64,47,-100,-100,-100,0,0,100,0.00,40.00,0,-999,0,0.00
2013-8-11,76,66,58,-100,-100,-100,0,0,100,0.00,40.00,0,-999,0,0.00
2013-8-12,73,60,47,-100,-100,-100,0,0,100,0.00,40.00,0,-999,0,0.00
2013-8-13,76,60,46,-100,-100,-100,0,0,100,0.00,40.00,0,-999,0,0.00
2013-8-14,74,61,46,-100,-100,-100,0,0,100,0.00,40.00,0,-999,0,0.00
2013-8-15,83,64,47,-100,-100,-100,0,0,100,0.00,40.00,0,-999,0,0.00
2013-8-16,86,66,48,-100,-100,-100,0,0,100,0.00,40.00,0,-999,0,0.00
2013-8-17,88,70,51,-100,-100,-100,0,0,100,0.00,40.00,0,-999,0,0.00
2013-8-18,89,72,54,-100,-100,-100,0,0,100,0.00,40.00,0,-999,0,0.00
2013-8-19,90,68,53,-100,-100,-100,0,0,100,0.00,40.00,0,-999,0,0.00
2013-8-20,92,74,53,-100,-100,-100,0,0,100,0.00,40.00,0,-999,0,0.00
2013-8-21,85,74,62,-100,-100,-100,0,0,100,0.00,40.00,0,-999,0,0.00
2013-8-22,80,66,55,-100,-100,-100,0,0,100,0.00,40.00,0,-999,0,0.00
2013-8-23,83,68,54,-100,-100,-100,0,0,100,0.00,40.00,0,-999,0,0.00
2013-8-24,87,72,53,-100,-100,-100,0,0,100,0.00,40.00,0,-999,0,0.00
2013-8-25,89,72,56,-100,-100,-100,0,0,100,0.00,40.00,0,-999,0,0.00
2013-8-26,89,73,56,-100,-100,-100,0,0,100,0.00,40.00,0,-999,0,0.00
2013-8-27,87,68,58,-100,-100,-100,0,0,100,0.00,40.00,0,-999,0,0.00
2013-8-28,91,80,69,-100,-100,-100,0,0,100,0.00,40.00,0,-999,0,0.00
2013-8-29,87,72,58,-100,-100,-100,0,0,100,0.00,40.00,0,-999,0,0.00
2013-8-30,87,72,56,-100,-100,-100,0,0,100,0.00,40.00,0,-999,0,0.00
2013-8-31,87,72,53,-100,-100,-100,0,0,100,0.00,40.00,0,-999,0,0.00
2013-9-1,76,66,56,-100,-100,-100,0,0,100,0.00,40.00,0,-999,0,0.00
2013-9-2,86,68,52,-100,-100,-100,0,0,100,0.00,40.00,0,-999,0,0.00
2013-9-3,90,77,60,-100,-100,-100,0,0,100,0.00,40.00,0,-999,0,0.00
2013-9-4,89,71,58,-100,-100,-100,0,0,100,0.00,40.00,0,-999,0,0.00
2013-9-5,88,74,59,-100,-100,-100,0,0,100,0.00,40.00,0,-999,0,0.00
2013-9-6,93,76,65,-100,-100,-100,0,0,100,0.00,40.00,0,-999,0,0.00
2013-9-7,90,71,58,-100,-100,-100,0,0,100,0.00,40.00,0,-999,0,0.00
2013-9-8,89,70,57,-100,-100,-100,0,0,100,0.00,40.00,0,-999,0,0.00
2013-9-9,74,61,55,-100,-100,-100,0,0,100,0.00,40.00,0,-999,0,0.00
2013-9-10,62,57,54,-100,-100,-100,0,0,100,0.00,40.00,0,-999,0,0.00
2013-9-11,63,57,54,-100,-100,-100,0,0,100,0.00,40.00,0,-999,0,0.00
2013-9-12,58,56,54,-100,-100,-100,0,0,100,0.00,40.00,0,-999,0,0.00
2013-9-13,67,58,54,-100,-100,-100,0,0,100,0.00,40.00,0,-999,0,0.00
2013-9-14,71,59,53,-100,-100,-100,0,0,100,0.00,40.00,0,-999,0,0.00
2013-9-15,54,52,50,-100,-100,-100,0,0,100,0.00,40.00,0,-999,0,0.00
2013-9-16,65,56,48,-100,-100,-100,0,0,100,0.00,40.00,0,-999,0,0.00
2013-9-17,79,66,47,-100,-100,-100,0,0,100,0.00,40.00,0,-999,0,0.00
2013-9-18,58,56,53,-100,-100,-100,0,0,100,0.00,40.00,0,-999,0,0.00
2013-9-19,61,54,45,-100,-100,-100,0,0,100,0.00,40.00,0,-999,0,0.00
2013-9-20,67,49,36,-100,-100,-100,0,0,100,0.00,40.00,0,-999,0,0.00
2013-9-21,77,58,42,-100,-100,-100,0,0,100,0.00,40.00,0,-999,0,0.00
2013-9-22,76,59,47,-100,-100,-100,0,0,100,0.00,40.00,0,-999,0,0.00
2013-9-23,61,52,44,-100,-100,-100,0,0,100,0.00,40.00,0,-999,0,0.00
2013-9-24,68,52,36,-100,-100,-100,0,0,100,0.00,40.00,0,-999,0,0.00
2013-9-25,76,54,40,-100,-100,-100,0,0,100,0.00,40.00,0,-999,0,0.00
2013-9-26,65,51,40,-100,-100,-100,0,0,100,0.00,40.00,0,-999,0,0.00
2013-9-27,51,42,39,-100,-100,-100,0,0,100,0.00,40.00,0,-999,0,0.00
2013-9-28,60,47,34,-100,-100,-100,0,0,100,0.00,40.00,0,-999,0,0.00
2013-9-29,69,55,37,-100,-100,-100,0,0,100,0.00,40.00,0,-999,0,0.00
2013-9-30,73,59,46,-100,-100,-100,0,0,100,0.00,40.00,0,-999,0,0.00
2013-10-1,63,56,50,-100,-100,-100,0,0,100,0.00,40.00,0,-999,0,0.00
2013-10-2,70,55,40,-100,-100,-100,0,0,100,0.00,40.00,0,-999,0,0.00
2013-10-3,57,44,36,-100,-100,-100,0,0,100,0.00,40.00,0,-999,0,0.00
2013-10-4,39,32,29,-100,-100,-100,0,0,100,0.00,40.00,0,-999,0,0.00
2013-10-5,52,40,29,-100,-100,-100,0,0,100,0.00,40.00,0,-999,0,0.00
2013-10-6,65,54,39,-100,-100,-100,0,0,100,0.00,40.00,0,-999,0,0.00
2013-10-7,69,46,32,-100,-100,-100,0,0,100,0.00,40.00,0,-999,0,0.00
2013-10-8,73,58,43,-100,-100,-100,0,0,100,0.00,40.00,0,-999,0,0.00
2013-10-9,55,47,40,-100,-100,-100,0,0,100,0.00,40.00,0,-999,0,0.00
2013-10-10,51,44,38,-100,-100,-100,0,0,100,0.00,40.00,0,-999,0,0.00
2013-10-11,54,48,42,-100,-100,-100,0,0,100,0.00,40.00,0,-999,0,0.00
2013-10-12,51,41,36,-100,-100,-100,0,0,100,0.00,40.00,0,-999,0,0.00
2013-10-13,59,45,32,-100,-100,-100,0,0,100,0.00,40.00,0,-999,0,0.00
2013-10-14,50,40,33,-100,-100,-100,0,0,100,0.00,40.00,0,-999,0,0.00
2013-10-15,39,32,25,-100,-100,-100,0,0,100,0.00,40.00,0,-999,0,0.00
2013-10-16,50,31,21,-100,-100,-100,0,0,100,0.00,40.00,0,-999,0,0.00
2013-10-17,41,33,26,-100,-100,-100,0,0,100,0.00,40.00,0,-999,0,0.00
2013-10-18,39,30,23,-100,-100,-100,0,0,100,0.00,40.00,0,-999,0,0.00
2013-10-19,56,38,25,-100,-100,-100,0,0,100,0.00,40.00,0,-999,0,0.00
2013-10-20,40,36,27,-100,-100,-100,0,0,100,0.00,40.00,0,-999,0,0.00
2013-10-21,53,36,23,-100,-100,-100,0,0,100,0.00,40.00,0,-999,0,0.00
2013-10-22,62,43,31,-100,-100,-100,0,0,100,0.00,40.00,0,-999,0,0.00
2013-10-23,63,48,36,-100,-100,-100,0,0,100,0.00,40.00,0,-999,0,0.00
2013-10-24,49,37,29,-100,-100,-100,0,0,100,0.00,40.00,0,-999,0,0.00
2013-10-25,66,46,28,-100,-100,-100,0,0,100,0.00,40.00,0,-999,0,0.00
2013-10-26,58,42,29,-100,-100,-100,0,0,100,0.00,40.00,0,-999,0,0.00
2013-10-27,66,47,32,-100,-100,-100,0,0,100,0.00,40.00,0,-999,0,0.00
2013-10-28,48,32,26,-100,-100,-100,0,0,100,0.00,40.00,0,-999,0,0.00
2013-10-29,33,29,26,-100,-100,-100,0,0,100,0.00,40.00,0,-999,0,0.00
2013-10-30,40,32,29,-100,-100,-100,0,0,100,0.00,40.00,0,-999,0,0.00
2013-10-31,48,37,27,-100,-100,-100,0,0,100,0.00,40.00,0,-999,0,0.00
2013-11-1,45,35,25,-100,-100,-100,0,0,100,0.00,40.00,0,-999,0,0.00
2013-11-2,51,30,20,-100,-100,-100,0,0,100,0.00,40.00,0,-999,0,0.00
2013-11-3,62,42,30,-100,-100,-100,0,0,100,0.00,40.00,0,-999,0,0.00
2013-11-4,35,29,21,-100,-100,-100,0,0,100,0.00,40.00,0,-999,0,0.00
2013-11-5,36,29,20,-100,-100,-100,0,0,100,0.00,40.00,0,-999,0,0.00
2013-11-6,46,30,14,-100,-100,-100,0,0,100,0.00,40.00,0,-999,0,0.00
2013-11-7,49,33,22,-100,-100,-100,0,0,100,0.00,40.00,0,-999,0,0.00
2013-11-8,61,42,25,-100,-100,-100,0,0,100,0.00,40.00,0,-999,0,0.00
2013-11-9,52,38,26,-100,-100,-100,0,0,100,0.00,40.00,0,-999,0,0.00
2013-11-10,58,39,26,-100,-100,-100,0,0,100,0.00,40.00,0,-999,0,0.00
2013-11-11,37,30,25,-100,-100,-100,0,0,100,0.00,40.00,0,-999,0,0.00
2013-11-12,51,30,21,-100,-100,-100,0,0,100,0.00,40.00,0,-999,0,0.00
2013-11-13,63,41,25,-100,-100,-100,0,0,100,0.00,40.00,0,-999,0,0.00
2013-11-14,51,42,32,-100,-100,-100,0,0,100,0.00,40.00,0,-999,0,0.00
2013-11-15,55,36,25,-100,-100,-100,0,0,100,0.00,40.00,0,-999,0,0.00
2013-11-16,49,35,28,-100,-100,-100,0,0,100,0.00,40.00,0,-999,0,0.00
2013-11-17,49,34,25,-100,-100,-100,0,0,100,0.00,40.00,0,-999,0,0.00
2013-11-18,50,30,20,-100,-100,-100,0,0,100,0.00,40.00,0,-999,0,0.00
2013-11-19,51,37,22,-100,-100,-100,0,0,100,0.00,40.00,0,-999,0,0.00
2013-11-20,52,40,22,-100,-100,-100,0,0,100,0.00,40.00,0,-999,0,0.00
2013-11-21,14,10,8,-100,-100,-100,0,0,100,0.00,40.00,0,-999,0,0.00
2013-11-22,31,20,4,-100,-100,-100,0,0,100,0.00,40.00,0,-999,0,0.00
2013-11-23,29,20,14,-100,-100,-100,0,0,100,0.00,40.00,0,-999,0,0.00
2013-11-24,32,21,13,-100,-100,-100,0,0,100,0.00,40.00,0,-999,0,0.00
2013-11-25,40,29,25,-100,-100,-100,0,0,100,0.00,40.00,0,-999,0,0.00
2013-11-26,45,28,20,-100,-100,-100,0,0,100,0.00,40.00,0,-999,0,0.00
2013-11-27,56,34,19,-100,-100,-100,0,0,100,0.00,40.00,0,-999,0,0.00
2013-11-28,41,27,21,-100,-100,-100,0,0,100,0.00,40.00,0,-999,0,0.00
2013-11-29,57,36,20,-100,-100,-100,0,0,100,0.00,40.00,0,-999,0,0.00
2013-11-30,51,32,26,-100,-100,-100,0,0,100,0.00,40.00,0,-999,0,0.00
2013-12-1,50,40,23,-100,-100,-100,0,0,100,0.00,40.00,0,-999,0,0.00
2013-12-2,48,43,40,-100,-100,-100,0,0,100,0.00,40.00,0,-999,0,0.00
2013-12-3,38,22,5,-100,-100,-100,0,0,100,0.00,40.00,0,-999,0,0.00
2013-12-4,4,1,-9,-100,-100,-100,0,0,100,0.00,40.00,0,-999,0,0.00
2013-12-5,4,-9,-18,-100,-100,-100,0,0,100,0.00,40.00,0,-999,0,0.00
2013-12-6,3,-5,-12,-100,-100,-100,0,0,100,0.00,40.00,0,-999,0,0.00
2013-12-7,6,-2,-13,-100,-100,-100,0,0,100,0.00,40.00,0,-999,0,0.00
2013-12-8,9,2,-3,-100,-100,-100,0,0,100,0.00,40.00,0,-999,0,0.00
2013-12-9,14,2,-7,-100,-100,-100,0,0,100,0.00,40.00,0,-999,0,0.00
2013-12-10,34,19,10,-100,-100,-100,0,0,100,0.00,40.00,0,-999,0,0.00
2013-12-11,24,13,9,-100,-100,-100,0,0,100,0.00,40.00,0,-999,0,0.00
2013-12-12,45,25,10,-100,-100,-100,0,0,100,0.00,40.00,0,-999,0,0.00
2013-12-13,43,28,21,-100,-100,-100,0,0,100,0.00,40.00,0,-999,0,0.00
2013-12-14,39,29,18,-100,-100,-100,0,0,100,0.00,40.00,0,-999,0,0.00
2013-12-15,51,36,23,-100,-100,-100,0,0,100,0.00,40.00,0,-999,0,0.00
2013-12-16,54,42,36,-100,-100,-100,0,0,100,0.00,40.00,0,-999,0,0.00
2013-12-17,54,38,30,-100,-100,-100,0,0,100,0.00,40.00,0,-999,0,0.00
2013-12-18,59,42,29,-100,-100,-100,0,0,100,0.00,40.00,0,-999,0,0.00
2013-12-19,38,26,12,-100,-100,-100,0,0,100,0.00,40.00,0,-999,0,0.00
2013-12-20,21,15,10,-100,-100,-100,0,0,100,0.00,40.00,0,-999,0,0.00
2013-12-21,27,17,9,-100,-100,-100,0,0,100,0.00,40.00,0,-999,0,0.00
2013-12-22,32,21,14,-100,-100,-100,0,0,100,0.00,40.00,0,-999,0,0.00
2013-12-23,18,15,11,-100,-100,-100,0,0,100,0.00,40.00,0,-999,0,0.00
2013-12-24,41,29,16,-100,-100,-100,0,0,100,0.00,40.00,0,-999,0,0.00
2013-12-25,35,28,16,-100,-100,-100,0,0,100,0.00,40.00,0,-999,0,0.00
2013-12-26,50,36,21,-100,-100,-100,0,0,100,0.00,40.00,0,-999,0,0.00
2013-12-27,54,30,21,-100,-100,-100,0,0,100,0.00,40.00,0,-999,0,0.00
2013-12-28,48,30,14,-100,-100,-100,0,0,100,0.00,40.00,0,-999,0,0.00
2013-12-29,32,23,7,-100,-100,-100,0,0,100,0.00,40.00,0,-999,0,0.00
2013-12-30,40,32,25,-100,-100,-100,0,0,100,0.00,40.00,0,-999,0,0.00
2013-12-31,49,37,21,-100,-100,-100,0,0,100,0.00,40.00,0,-999,0,0.00
2014-1-1,36,26,17,-100,-100,-100,0,0,100,0.00,40.00,0,-999,0,0.00
2014-1-2,37,22,9,-100,-100,-100,0,0,100,0.00,40.00,0,-999,0,0.00